Location: Unspecified
(0.0000°N, 0.0000°E)
Time: 01:52:20
(UTC+00:00)

Tiros 1 despin weight - Visible Passes

Search period start: 01 July 2015 00:00
Search period end: 11 July 2015 00:00
Orbit: 597 x 647 km, 48.2° (Epoch: 30 June)

Date Brightness Start Highest point End Pass type
(mag) Time Alt. Az. Time Alt. Az. Time Alt. Az.
01 Jul ? 04:36:25 46° SW 04:37:48 80° NW 04:42:30 10° NE visible
02 Jul ? 03:16:56 14° E 03:16:56 14° E 03:17:51 10° ENE visible
02 Jul ? 04:54:07 23° W 04:55:44 28° NW 04:59:44 10° N visible
03 Jul ? 03:34:35 26° ENE 03:34:35 26° ENE 03:36:44 10° NE visible
03 Jul ? 05:12:37 10° WNW 05:13:49 11° NW 05:14:42 10° NW visible
04 Jul ? 03:52:10 27° N 03:52:10 27° N 03:54:29 10° NNE visible
05 Jul ? 04:09:41 15° NNW 04:09:41 15° NNW 04:11:01 10° N visible
